STARLINK-11112, 60115

Orbit data source: Space-Track

STARLINK-11112, 60115 is a payload satellite owned by SpaceX/Seattle (US) in LEO that was launched on Mon, 24 Jun 2024 UTC via an FALCON 9 launch vehicle from the Air Force Western Test Range (AFWTR). Payload-class satellites include a variety of spacecraft equipped with specific instruments for various scientific and technological missions. These include communications satellites like Starlink; space stations such as the ISS; scientific satellites like the Hubble; Earth observation satellites from companies like Planet Labs, Umbra, and HawkEye 360; GPS; miniature CubeSats for education and research; and military/defense satellites.

Loading next visibility...
Identifier
60115, 2024-118C
Orbit
LEO
Country
Flag of USUS
Related business
Manufacturer
SpaceX/Seattle
Mission
Operational Commercial Communications
Bus & Motor
STARLINK V2MD, Unknown motor
Mass
960 kg wet, ~910 kg dry
Launch date (UTC)
2024-06-24 (1 year ago)
Launch vehicle
FALCON 9
Launch site
Air Force Western Test Range (AFWTR)
Object type
Payload
Rocket body
Debris
Shape & HBR
Box + 2 Pan, 18.1 m
Radar Cross Section
36.964 m², Large (>1 m²)

Expand to show TLE details & history
Last TLE update: 11 hours ago

TLE from 11 hours ago
0 STARLINK-11112
1 60115U 24118C   25308.85369316 -.00003424  00000-0 -23435-4 0  9994
2 60115  53.1595 116.8642 0000268 110.2415 249.8632 15.69704932 78387
Epoch: 2025-11-04T20:29Z
TLE epoch observation values (Epoch: 2025-11-04T20:29:19.089Z)
Latitude
0.00002°
Longitude
125.19993°
Altitude
360.718 km
Speed
7.694 km/s
True Right ascension
07h 47m 27s
True Declination
0° 00' 00"
Sunlit
Object was in daylight at epoch
Visualization orbit readout
Latitude
Unknown
Longitude
Unknown
Altitude
Unknown
Speed
Unknown
Apparent Right ascension
Unknown
Apparent Declination
Unknown
Sunlit
N/A
Visualization observer readout
Local Sidereal Time
03:14:47
Azimuth
Unknown
Elevation
Unknown
Doppler factor
Unknown
Orbital elements
Apogee altitude
360.183 km
Perigee altitude
359.821 km
Semi-major axis
6,738.139 km
Eccentricity
0.00003
Inclination
53.1595°
RAAN
116.8642°
Arg. of periapsis
110.2415°
True anomaly
249.86032°
Mean anomaly
249.8632°
Eccentric anomaly
249.86176°
Mean motion
3.92404 °/min
Orbital period
91.74 mins
BSTAR
-0.000023435
Loading maneuver chart data...
Computing Atmospheric mass density...
Loading historical data...
Loading historical data...
Loading historical data...
Loading historical data...
Loading historical data...
Loading historical data...
Loading historical data...

Documentation

Showing up to 5 results
|